Time,TemperatureF,DewpointF,PressureIn,WindDirection,WindDirectionDegrees,WindSpeedMPH,WindSpeedGustMPH,Humidity,HourlyPrecipIn,Conditions,Clouds,dailyrainin,SoftwareType,DateUTC
2013-04-10 00:03:00,13.0,10.0,-100.00,NW,305,19.0,25.0,85,-99.99,,,-99.99,,2013-04-10 06:03:00,
2013-04-10 00:12:00,13.0,10.0,-100.00,NW,305,19.0,25.0,85,-99.99,,,-99.99,,2013-04-10 06:12:00,
2013-04-10 00:22:00,14.0,10.0,-100.00,WNW,300,23.0,28.0,85,-99.99,,,-99.99,,2013-04-10 06:22:00,
2013-04-10 00:32:00,14.0,10.0,-100.00,WNW,300,24.0,32.0,84,-99.99,,,-99.99,,2013-04-10 06:32:00,
2013-04-10 00:42:00,14.0,10.0,-100.00,WNW,295,21.0,30.0,84,-99.99,,,-99.99,,2013-04-10 06:42:00,
2013-04-10 00:52:00,14.0,10.0,-100.00,WNW,295,21.0,30.0,84,-99.99,,,-99.99,,2013-04-10 06:52:00,
2013-04-10 01:02:00,14.0,10.0,-100.00,WNW,295,21.0,30.0,84,-99.99,,,-99.99,,2013-04-10 07:02:00,
2013-04-10 01:12:00,14.0,10.0,-100.00,WNW,295,21.0,30.0,84,-99.99,,,-99.99,,2013-04-10 07:12:00,
2013-04-10 01:32:00,13.0,9.0,-100.00,WNW,295,21.0,26.0,84,-99.99,,,-99.99,,2013-04-10 07:32:00,
2013-04-10 01:43:00,13.0,9.0,-100.00,WNW,295,21.0,26.0,84,-99.99,,,-99.99,,2013-04-10 07:43:00,
2013-04-10 01:52:00,13.0,9.0,-100.00,WNW,295,21.0,26.0,84,-99.99,,,-99.99,,2013-04-10 07:52:00,
2013-04-10 02:02:00,13.0,9.0,-100.00,WNW,300,20.0,28.0,84,-99.99,,,-99.99,,2013-04-10 08:02:00,
2013-04-10 02:12:00,13.0,9.0,-100.00,WNW,300,21.0,25.0,84,-99.99,,,-99.99,,2013-04-10 08:12:00,
2013-04-10 02:22:00,13.0,9.0,-100.00,WNW,295,22.0,25.0,84,-99.99,,,-99.99,,2013-04-10 08:22:00,
2013-04-10 02:32:00,13.0,9.0,-100.00,WNW,295,19.0,27.0,83,-99.99,,,-99.99,,2013-04-10 08:32:00,
2013-04-10 02:42:00,13.0,9.0,-100.00,WNW,295,19.0,27.0,83,-99.99,,,-99.99,,2013-04-10 08:42:00,
2013-04-10 02:52:00,13.0,9.0,-100.00,WNW,295,19.0,27.0,83,-99.99,,,-99.99,,2013-04-10 08:52:00,
2013-04-10 03:02:00,13.0,10.0,-100.00,WNW,295,18.0,25.0,84,-99.99,,,-99.99,,2013-04-10 09:02:00,
2013-04-10 03:12:00,14.0,10.0,-100.00,WNW,295,21.0,25.0,84,-99.99,,,-99.99,,2013-04-10 09:12:00,
2013-04-10 03:22:00,14.0,10.0,-100.00,WNW,295,24.0,28.0,84,-99.99,,,-99.99,,2013-04-10 09:22:00,
2013-04-10 03:32:00,14.0,10.0,-100.00,WNW,295,24.0,30.0,83,-99.99,,,-99.99,,2013-04-10 09:32:00,
2013-04-10 03:43:00,14.0,10.0,-100.00,WNW,295,24.0,30.0,83,-99.99,,,-99.99,,2013-04-10 09:43:00,
2013-04-10 03:52:00,14.0,10.0,-100.00,WNW,290,24.0,29.0,82,-99.99,,,-99.99,,2013-04-10 09:52:00,
2013-04-10 04:03:00,14.0,10.0,-100.00,WNW,290,23.0,30.0,82,-99.99,,,-99.99,,2013-04-10 10:03:00,
2013-04-10 04:13:00,14.0,10.0,-100.00,WNW,295,24.0,32.0,83,-99.99,,,-99.99,,2013-04-10 10:13:00,
2013-04-10 04:23:00,14.0,10.0,-100.00,WNW,295,22.0,29.0,84,-99.99,,,-99.99,,2013-04-10 10:23:00,
2013-04-10 04:33:00,14.0,10.0,-100.00,WNW,295,22.0,27.0,84,-99.99,,,-99.99,,2013-04-10 10:33:00,
2013-04-10 04:42:00,14.0,10.0,-100.00,WNW,295,23.0,29.0,83,-99.99,,,-99.99,,2013-04-10 10:42:00,
2013-04-10 04:52:00,15.0,11.0,-100.00,WNW,295,24.0,30.0,83,-99.99,,,-99.99,,2013-04-10 10:52:00,
2013-04-10 05:02:00,15.0,11.0,-100.00,WNW,290,25.0,32.0,83,-99.99,,,-99.99,,2013-04-10 11:02:00,
2013-04-10 05:12:00,15.0,10.0,-100.00,WNW,290,23.0,29.0,82,-99.99,,,-99.99,,2013-04-10 11:12:00,
2013-04-10 05:22:00,15.0,10.0,-100.00,WNW,290,21.0,30.0,81,-99.99,,,-99.99,,2013-04-10 11:22:00,
2013-04-10 05:32:00,15.0,10.0,-100.00,WNW,285,24.0,31.0,81,-99.99,,,-99.99,,2013-04-10 11:32:00,
2013-04-10 05:42:00,15.0,10.0,-100.00,WNW,285,20.0,29.0,80,-99.99,,,-99.99,,2013-04-10 11:42:00,
2013-04-10 05:52:00,15.0,10.0,-100.00,West,280,21.0,26.0,80,-99.99,,,-99.99,,2013-04-10 11:52:00,
2013-04-10 06:03:00,15.0,10.0,-100.00,WNW,285,20.0,26.0,80,-99.99,,,-99.99,,2013-04-10 12:03:00,
2013-04-10 06:12:00,15.0,10.0,-100.00,WNW,285,20.0,24.0,80,-99.99,,,-99.99,,2013-04-10 12:12:00,
2013-04-10 06:22:00,15.0,10.0,-100.00,WNW,285,20.0,24.0,80,-99.99,,,-99.99,,2013-04-10 12:22:00,
2013-04-10 06:33:00,13.0,9.0,-100.00,WNW,290,19.0,22.0,82,-99.99,,,-99.99,,2013-04-10 12:33:00,
2013-04-10 06:42:00,13.0,9.0,-100.00,WNW,290,19.0,22.0,83,-99.99,,,-99.99,,2013-04-10 12:42:00,
2013-04-10 06:52:00,13.0,9.0,-100.00,WNW,295,19.0,23.0,83,-99.99,,,-99.99,,2013-04-10 12:52:00,
2013-04-10 07:02:00,13.0,9.0,-100.00,WNW,290,19.0,23.0,82,-99.99,,,-99.99,,2013-04-10 13:02:00,
2013-04-10 07:12:00,13.0,9.0,-100.00,WNW,290,19.0,23.0,82,-99.99,,,-99.99,,2013-04-10 13:12:00,
2013-04-10 07:23:00,13.0,9.0,-100.00,WNW,290,19.0,23.0,82,-99.99,,,-99.99,,2013-04-10 13:23:00,
2013-04-10 07:32:00,13.0,9.0,-100.00,WNW,290,19.0,23.0,82,-99.99,,,-99.99,,2013-04-10 13:32:00,
2013-04-10 11:53:00,21.0,13.0,-100.00,WSW,240,27.0,35.0,69,-99.99,,,-99.99,,2013-04-10 17:53:00,
2013-04-10 12:03:00,21.0,13.0,-100.00,WSW,240,27.0,35.0,69,-99.99,,,-99.99,,2013-04-10 18:03:00,
2013-04-10 12:12:00,22.0,13.0,-100.00,WSW,240,25.0,35.0,70,-99.99,,,-99.99,,2013-04-10 18:12:00,
2013-04-10 12:23:00,21.0,13.0,-100.00,WSW,240,29.0,33.0,69,-99.99,,,-99.99,,2013-04-10 18:23:00,
2013-04-10 12:33:00,21.0,13.0,-100.00,WSW,240,29.0,33.0,69,-99.99,,,-99.99,,2013-04-10 18:33:00,
2013-04-10 12:42:00,21.0,13.0,-100.00,WSW,240,29.0,33.0,69,-99.99,,,-99.99,,2013-04-10 18:42:00,
2013-04-10 12:52:00,21.0,13.0,-100.00,WSW,240,29.0,33.0,69,-99.99,,,-99.99,,2013-04-10 18:52:00,
2013-04-10 13:12:00,22.0,14.0,-100.00,SW,235,28.0,34.0,69,-99.99,,,-99.99,,2013-04-10 19:12:00,
2013-04-10 13:22:00,22.0,14.0,-100.00,SW,235,28.0,34.0,69,-99.99,,,-99.99,,2013-04-10 19:22:00,
2013-04-10 13:33:00,22.0,14.0,-100.00,SW,235,28.0,34.0,69,-99.99,,,-99.99,,2013-04-10 19:33:00,
2013-04-10 13:42:00,22.0,14.0,-100.00,SW,235,27.0,35.0,68,-99.99,,,-99.99,,2013-04-10 19:42:00,
2013-04-10 13:53:00,23.0,13.0,-100.00,SW,230,25.0,35.0,67,-99.99,,,-99.99,,2013-04-10 19:53:00,
2013-04-10 14:03:00,23.0,13.0,-100.00,SW,230,25.0,35.0,67,-99.99,,,-99.99,,2013-04-10 20:03:00,
2013-04-10 14:12:00,23.0,13.0,-100.00,SW,230,25.0,35.0,67,-99.99,,,-99.99,,2013-04-10 20:12:00,
2013-04-10 14:23:00,23.0,13.0,-100.00,SW,230,25.0,35.0,67,-99.99,,,-99.99,,2013-04-10 20:23:00,
2013-04-10 14:33:00,23.0,13.0,-100.00,SW,225,29.0,34.0,65,-99.99,,,-99.99,,2013-04-10 20:33:00,
2013-04-10 14:43:00,23.0,13.0,-100.00,SW,225,29.0,34.0,65,-99.99,,,-99.99,,2013-04-10 20:43:00,
2013-04-10 14:52:00,23.0,13.0,-100.00,SW,225,29.0,34.0,65,-99.99,,,-99.99,,2013-04-10 20:52:00,
2013-04-10 15:03:00,23.0,13.0,-100.00,SW,225,29.0,34.0,65,-99.99,,,-99.99,,2013-04-10 21:03:00,
2013-04-10 15:43:00,23.0,15.0,-100.00,WSW,240,22.0,32.0,70,-99.99,,,-99.99,,2013-04-10 21:43:00,
2013-04-10 15:53:00,23.0,15.0,-100.00,WSW,240,22.0,32.0,70,-99.99,,,-99.99,,2013-04-10 21:53:00,
2013-04-10 16:03:00,23.0,15.0,-100.00,WSW,240,22.0,32.0,70,-99.99,,,-99.99,,2013-04-10 22:03:00,
2013-04-10 16:13:00,23.0,15.0,-100.00,WSW,240,22.0,32.0,70,-99.99,,,-99.99,,2013-04-10 22:13:00,
2013-04-10 16:53:00,24.0,15.0,-100.00,SW,235,24.0,-999.0,68,-99.99,,,-99.99,,2013-04-10 22:53:00,
2013-04-10 17:03:00,24.0,15.0,-100.00,SW,235,24.0,-999.0,68,-99.99,,,-99.99,,2013-04-10 23:03:00,
2013-04-10 17:12:00,24.0,15.0,-100.00,SW,230,24.0,30.0,67,-99.99,,,-99.99,,2013-04-10 23:12:00,
2013-04-10 17:22:00,24.0,15.0,-100.00,SW,235,25.0,31.0,68,-99.99,,,-99.99,,2013-04-10 23:22:00,
2013-04-10 17:33:00,24.0,15.0,-100.00,SW,235,25.0,31.0,68,-99.99,,,-99.99,,2013-04-10 23:33:00,
2013-04-10 17:42:00,24.0,15.0,-100.00,SW,230,24.0,32.0,68,-99.99,,,-99.99,,2013-04-10 23:42:00,
2013-04-10 17:52:00,24.0,15.0,-100.00,SW,230,24.0,32.0,68,-99.99,,,-99.99,,2013-04-10 23:52:00,
2013-04-10 18:02:00,24.0,15.0,-100.00,SW,235,25.0,32.0,69,-99.99,,,-99.99,,2013-04-11 00:02:00,
2013-04-10 18:12:00,24.0,15.0,-100.00,SW,235,25.0,32.0,69,-99.99,,,-99.99,,2013-04-11 00:12:00,
2013-04-10 18:22:00,24.0,15.0,-100.00,SW,235,25.0,32.0,69,-99.99,,,-99.99,,2013-04-11 00:22:00,
2013-04-10 18:32:00,23.0,15.0,-100.00,WSW,240,24.0,29.0,69,-99.99,,,-99.99,,2013-04-11 00:32:00,
2013-04-10 18:43:00,23.0,15.0,-100.00,WSW,240,21.0,29.0,70,-99.99,,,-99.99,,2013-04-11 00:43:00,
2013-04-10 18:53:00,23.0,15.0,-100.00,WSW,240,21.0,29.0,70,-99.99,,,-99.99,,2013-04-11 00:53:00,
2013-04-10 19:02:00,23.0,15.0,-100.00,WSW,240,21.0,29.0,70,-99.99,,,-99.99,,2013-04-11 01:02:00,
2013-04-10 19:12:00,23.0,15.0,-100.00,WSW,240,21.0,29.0,70,-99.99,,,-99.99,,2013-04-11 01:12:00,
2013-04-10 21:22:00,22.0,15.0,-100.00,West,260,12.0,14.0,74,-99.99,,,-99.99,,2013-04-11 03:22:00,
2013-04-10 21:33:00,22.0,15.0,-100.00,West,260,12.0,14.0,74,-99.99,,,-99.99,,2013-04-11 03:33:00,
2013-04-10 21:43:00,22.0,16.0,-100.00,West,265,11.0,15.0,75,-99.99,,,-99.99,,2013-04-11 03:43:00,
2013-04-10 21:53:00,22.0,16.0,-100.00,West,265,11.0,15.0,75,-99.99,,,-99.99,,2013-04-11 03:53:00,
2013-04-10 22:03:00,22.0,16.0,-100.00,West,265,11.0,15.0,75,-99.99,,,-99.99,,2013-04-11 04:03:00,
2013-04-10 22:13:00,22.0,16.0,-100.00,West,265,11.0,15.0,75,-99.99,,,-99.99,,2013-04-11 04:13:00,